Total_Precipitation_Accumulation
0.13 0.05 0.03 0.03 0.04 0.05 0.03 0.02 0.02 0.00 0.00 0.00 0.01 0.05 0.07 0.05 0.02 0.00 0.00 0.00 0.00 0.00
0.19 0.09 0.07 0.06 0.05 0.04 0.04 0.04 0.02 0.00 0.00 0.01 0.07 0.07 0.03 0.02 0.01 0.00 0.00 0.00 0.00 0.00
0.18 0.14 0.08 0.06 0.05 0.03 0.03 0.03 0.01 0.00 0.01 0.03 0.04 0.03 0.03 0.03 0.01 0.00 0.00 0.00 0.00 0.00
0.12 0.10 0.08 0.07 0.06 0.04 0.04 0.05 0.05 0.04 0.07 0.08 0.08 0.06 0.03 0.02 0.03 0.02 0.00 0.00 0.00 0.00
0.16 0.16 0.17 0.14 0.08 0.06 0.07 0.09 0.10 0.20 0.19 0.08 0.06 0.05 0.06 0.06 0.02 0.00 0.00 0.00 0.00 0.00
0.14 0.14 0.15 0.13 0.14 0.25 0.45 0.51 0.42 0.26 0.14 0.07 0.07 0.08 0.06 0.03 0.00 0.00 0.00 0.00 0.00 0.00
0.15 0.15 0.14 0.11 0.13 0.17 0.15 0.09 0.07 0.06 0.08 0.13 0.12 0.06 0.02 0.00 0.00 0.00 0.00 0.00 0.00 0.00
0.05 0.04 0.03 0.02 0.02 0.01 0.01 0.04 0.07 0.06 0.06 0.05 0.06 0.04 0.01 0.00 0.00 0.00 0.00 0.00 0.00 0.00
0.00 0.00 0.00 0.00 0.00 0.01 0.02 0.02 0.02 0.04 0.08 0.08 0.04 0.02 0.01 0.00 0.00 0.00 0.00 0.00 0.00 0.00
0.00 0.00 0.00 0.01 0.00 0.01 0.01 0.02 0.08 0.13 0.10 0.04 0.01 0.01 0.00 0.00 0.00 0.00 0.00 0.00 0.00 0.00
0.00 0.00 0.00 0.00 0.02 0.02 0.06 0.13 0.12 0.04 0.01 0.00 0.00 0.00 0.00 0.00 0.00 0.00 0.00 0.00 0.00 0.00
0.00 0.00 0.00 0.02 0.07 0.09 0.07 0.02 0.00 0.00 0.00 0.00 0.00 0.00 0.00 0.00 0.00 0.00 0.00 0.00 0.00 0.00
0.00 0.02 0.05 0.05 0.02 0.00 0.00 0.00 0.00 0.00 0.00 0.00 0.00 0.00 0.00 0.00 0.00 0.00 0.00 0.00 0.00 0.00
0.01 0.00 0.00 0.00 0.00 0.00 0.00 0.00 0.00 0.00 0.00 0.00 0.00 0.00 0.00 0.00 0.00 0.00 0.00 0.00 0.00 0.00